Meteo orario Alida

Oggi, 29 Ottobre, Giovedi

Tempo Temperatura Precipitazioni Vento Pressione Umidità
00:00 -4°C° 0 mm 2 m/s 714 mm Hg 94%
01:00 -4°C° 0 mm 2 m/s 714 mm Hg 95%
02:00 -4°C° 0 mm 2 m/s 714 mm Hg 96%
03:00 -3°C° 0 mm 2 m/s 713 mm Hg 96%
04:00 -3°C° 0 mm 2 m/s 713 mm Hg 95%
05:00 -2°C° 0 mm 2 m/s 713 mm Hg 95%
06:00 -2°C° 0 mm 2 m/s 712 mm Hg 93%
07:00 -2°C° 0 mm 2 m/s 712 mm Hg 91%
08:00 -1°C° 0 mm 2 m/s 712 mm Hg 90%
09:00 -1°C° 0 mm 2 m/s 711 mm Hg 86%
10:00 +1°C° 0 mm 2 m/s 711 mm Hg 83%
11:00 +2°C° 0 mm 2 m/s 711 mm Hg 80%
12:00 +2°C° 0 mm 2 m/s 710 mm Hg 81%
13:00 +2°C° 0 mm 2 m/s 710 mm Hg 83%
14:00 +3°C° 0 mm 1 m/s 710 mm Hg 85%
15:00 +2°C° 0.2 mm 1 m/s 710 mm Hg 89%
16:00 +2°C° 0.2 mm 1 m/s 710 mm Hg 94%
17:00 +1°C° 0.2 mm 1 m/s 710 mm Hg 99%
18:00 +1°C° 0 mm 1 m/s 710 mm Hg 98%
19:00 +1°C° 0 mm 1 m/s 711 mm Hg 98%
20:00 +1°C° 0 mm 1 m/s 711 mm Hg 98%
21:00 +1°C° 0 mm 1 m/s 711 mm Hg 97%
22:00 +1°C° 0 mm 1 m/s 712 mm Hg 97%
23:00 +1°C° 0 mm 1 m/s 712 mm Hg 97%

Domani, 30 Ottobre, Venerdi

Tempo Temperatura Precipitazioni Vento Pressione Umidità
00:00 +1°C° 0 mm 1 m/s 712 mm Hg 97%
01:00 +1°C° 0 mm 1 m/s 712 mm Hg 97%
02:00 +1°C° 0 mm 1 m/s 712 mm Hg 97%
03:00 +1°C° 0 mm 1 m/s 712 mm Hg 97%
04:00 +1°C° 0 mm 1 m/s 712 mm Hg 97%
05:00 -1°C° 0 mm 2 m/s 712 mm Hg 97%
06:00 -1°C° 0 mm 2 m/s 711 mm Hg 97%
07:00 0°C° 0 mm 3 m/s 711 mm Hg 96%
08:00 0°C° 0 mm 3 m/s 711 mm Hg 96%
09:00 0°C° 0 mm 4 m/s 710 mm Hg 93%
10:00 0°C° 0 mm 5 m/s 709 mm Hg 90%
11:00 +1°C° 0 mm 6 m/s 708 mm Hg 87%
12:00 +2°C° 0 mm 6 m/s 707 mm Hg 84%
13:00 +2°C° 0 mm 7 m/s 706 mm Hg 82%
14:00 +2°C° 0 mm 8 m/s 704 mm Hg 79%
15:00 +3°C° 0 mm 7 m/s 703 mm Hg 80%
16:00 +2°C° 0 mm 7 m/s 702 mm Hg 82%
17:00 +2°C° 0 mm 7 m/s 700 mm Hg 84%
18:00 +2°C° 0 mm 7 m/s 700 mm Hg 84%
19:00 +3°C° 0 mm 7 m/s 699 mm Hg 85%
20:00 +3°C° 0 mm 7 m/s 699 mm Hg 85%
21:00 +4°C° 0 mm 7 m/s 698 mm Hg 81%
22:00 +4°C° 0 mm 7 m/s 697 mm Hg 76%
23:00 +5°C° 0 mm 7 m/s 697 mm Hg 72%

Dopodomani, 31 Ottobre, Sabato

Tempo Temperatura Precipitazioni Vento Pressione Umidità
00:00 +4°C° 0 mm 7 m/s 697 mm Hg 73%
01:00 +4°C° 0 mm 7 m/s 697 mm Hg 75%
02:00 +3°C° 0 mm 7 m/s 697 mm Hg 76%
03:00 +2°C° 0 mm 8 m/s 698 mm Hg 77%
04:00 +1°C° 0 mm 9 m/s 698 mm Hg 77%
05:00 +1°C° 0 mm 9 m/s 699 mm Hg 78%
06:00 0°C° 0 mm 10 m/s 701 mm Hg 76%
07:00 -3°C° 0 mm 11 m/s 702 mm Hg 74%
08:00 -4°C° 0 mm 11 m/s 703 mm Hg 72%
09:00 -4°C° 0 mm 11 m/s 704 mm Hg 69%
10:00 -5°C° 0 mm 12 m/s 705 mm Hg 65%
11:00 -5°C° 0 mm 12 m/s 706 mm Hg 62%
12:00 -6°C° 0 mm 12 m/s 707 mm Hg 61%
13:00 -6°C° 0 mm 11 m/s 708 mm Hg 60%
14:00 -6°C° 0 mm 11 m/s 709 mm Hg 59%
15:00 -7°C° 0 mm 10 m/s 710 mm Hg 62%
16:00 -7°C° 0 mm 10 m/s 711 mm Hg 64%
17:00 -8°C° 0 mm 9 m/s 712 mm Hg 66%
18:00 -8°C° 0 mm 9 m/s 713 mm Hg 67%
19:00 -8°C° 0 mm 8 m/s 714 mm Hg 68%
20:00 -8°C° 0 mm 7 m/s 715 mm Hg 69%
21:00 -8°C° 0 mm 7 m/s 716 mm Hg 71%
22:00 -9°C° 0 mm 6 m/s 717 mm Hg 72%
23:00 -8°C° 0 mm 5 m/s 718 mm Hg 74%

1 Novenbre, Domenica

Tempo Temperatura Precipitazioni Vento Pressione Umidità
00:00 -10°C° 0 mm 5 m/s 718 mm Hg 75%
01:00 -9°C° 0 mm 4 m/s 719 mm Hg 77%
02:00 -9°C° 0 mm 4 m/s 720 mm Hg 79%
03:00 -8°C° 0 mm 3 m/s 720 mm Hg 81%
04:00 -8°C° 0 mm 3 m/s 720 mm Hg 83%
05:00 -9°C° 0 mm 3 m/s 720 mm Hg 84%
06:00 -8°C° 0 mm 3 m/s 720 mm Hg 83%
07:00 -7°C° 0 mm 3 m/s 721 mm Hg 81%
08:00 -7°C° 0 mm 3 m/s 721 mm Hg 79%
09:00 -5°C° 0 mm 3 m/s 721 mm Hg 71%
10:00 -2°C° 0 mm 4 m/s 721 mm Hg 62%
11:00 0°C° 0 mm 4 m/s 721 mm Hg 53%
12:00 +1°C° 0 mm 4 m/s 720 mm Hg 48%
13:00 +2°C° 0 mm 5 m/s 720 mm Hg 43%
14:00 +3°C° 0 mm 5 m/s 719 mm Hg 39%
15:00 +1°C° 0 mm 4 m/s 719 mm Hg 44%
16:00 0°C° 0 mm 4 m/s 718 mm Hg 49%
17:00 -1°C° 0 mm 3 m/s 718 mm Hg 54%
18:00 -2°C° 0 mm 4 m/s 718 mm Hg 54%
19:00 -2°C° 0 mm 4 m/s 717 mm Hg 55%
20:00 -3°C° 0 mm 4 m/s 717 mm Hg 56%
21:00 -3°C° 0 mm 4 m/s 716 mm Hg 55%
22:00 -3°C° 0 mm 4 m/s 715 mm Hg 55%
23:00 -2°C° 0 mm 4 m/s 715 mm Hg 55%

2 Novenbre, Lunedi

Tempo Temperatura Precipitazioni Vento Pressione Umidità
00:00 -2°C° 0 mm 4 m/s 714 mm Hg 57%
01:00 -2°C° 0 mm 4 m/s 714 mm Hg 59%
02:00 -3°C° 0 mm 4 m/s 713 mm Hg 62%
03:00 -3°C° 0 mm 4 m/s 713 mm Hg 65%
04:00 -3°C° 0 mm 4 m/s 713 mm Hg 69%
05:00 -3°C° 0 mm 4 m/s 712 mm Hg 72%
06:00 -2°C° 0 mm 4 m/s 712 mm Hg 71%
07:00 -1°C° 0 mm 4 m/s 712 mm Hg 70%
08:00 0°C° 0 mm 4 m/s 712 mm Hg 69%
09:00 +3°C° 0 mm 4 m/s 712 mm Hg 63%
10:00 +5°C° 0 mm 4 m/s 711 mm Hg 58%
11:00 +8°C° 0 mm 4 m/s 711 mm Hg 52%
12:00 +8°C° 0 mm 4 m/s 711 mm Hg 50%
13:00 +10°C° 0 mm 3 m/s 710 mm Hg 49%
14:00 +11°C° 0 mm 3 m/s 709 mm Hg 47%
15:00 +10°C° 0 mm 3 m/s 709 mm Hg 51%
16:00 +8°C° 0 mm 3 m/s 708 mm Hg 55%
17:00 +7°C° 0 mm 3 m/s 707 mm Hg 59%
18:00 +5°C° 0 mm 3 m/s 707 mm Hg 61%
19:00 +5°C° 0 mm 3 m/s 706 mm Hg 63%
20:00 +4°C° 0 mm 3 m/s 705 mm Hg 65%
21:00 +4°C° 0 mm 3 m/s 705 mm Hg 67%
22:00 +4°C° 0 mm 3 m/s 704 mm Hg 68%
23:00 +4°C° 0 mm 3 m/s 703 mm Hg 70%

3 Novenbre, Martedi

Tempo Temperatura Precipitazioni Vento Pressione Umidità
00:00 +4°C° 0 mm 4 m/s 703 mm Hg 69%
01:00 +5°C° 0 mm 4 m/s 702 mm Hg 68%
02:00 +5°C° 0 mm 5 m/s 702 mm Hg 67%
03:00 +5°C° 0 mm 5 m/s 702 mm Hg 66%
04:00 +4°C° 0 mm 6 m/s 701 mm Hg 65%
05:00 +4°C° 0 mm 6 m/s 701 mm Hg 64%
06:00 +4°C° 0 mm 6 m/s 701 mm Hg 62%
07:00 +5°C° 0 mm 7 m/s 701 mm Hg 60%
08:00 +5°C° 0 mm 7 m/s 701 mm Hg 57%
09:00 +8°C° 0 mm 7 m/s 701 mm Hg 50%
10:00 +10°C° 0 mm 8 m/s 701 mm Hg 43%
11:00 +12°C° 0 mm 8 m/s 701 mm Hg 36%
12:00 +13°C° 0 mm 8 m/s 701 mm Hg 34%
13:00 +15°C° 0 mm 8 m/s 701 mm Hg 32%
14:00 +16°C° 0 mm 8 m/s 701 mm Hg 30%
15:00 +15°C° 0 mm 7 m/s 701 mm Hg 35%
16:00 +13°C° 0 mm 6 m/s 701 mm Hg 40%
17:00 +12°C° 0 mm 5 m/s 701 mm Hg 45%
18:00 +10°C° 0 mm 5 m/s 701 mm Hg 48%
19:00 +9°C° 0 mm 5 m/s 702 mm Hg 51%
20:00 +8°C° 0 mm 6 m/s 702 mm Hg 54%
21:00 +7°C° 0 mm 5 m/s 703 mm Hg 59%
22:00 +6°C° 0 mm 5 m/s 703 mm Hg 64%
23:00 +5°C° 0 mm 4 m/s 703 mm Hg 69%
Mostrare altro

Abbiamo bisogno del tuo consenso

Meteoprog e i nostri fornitori di servizi possono memorizzare e accedere a dati personali come cookie, identificatori di dispositivi o altre tecnologie simili sul tuo dispositivo e possono elaborare tali dati per personalizzare i contenuti e gli annunci, nonché fornire funzionalità dei social media e analizzarne il traffico.

  • Archiviare e/o accedere alle informazioni sul tuo dispositivo

    Cookie, identificatori di dispositivi o altre informazioni possono essere memorizzati o resi accessibili sul tuo dispositivo per le finalità sopra indicate.

  • Annunci e contenuti personalizzati, misurazione di annunci e contenuti, approfondimenti sul pubblico e sviluppo di prodotti

    Gli annunci e i contenuti possono essere personalizzati in base a un profilo. È possibile aggiungere più dati per personalizzare meglio annunci e contenuti. È possibile misurare il rendimento degli annunci e dei contenuti. È possibile ricavare informazioni sul pubblico che ha visto gli annunci e i contenuti. Tali dati possono essere utilizzati per sviluppare o migliorare l'esperienza, i sistemi e il software dell'utente.

Cliccando su “Accetto”, acconsenti all'uso di cookie, identificatori di dispositivo, web beacon o altre tecnologie simili. Puoi modificare le impostazioni nel browser del tuo dispositivo.

Per determinati scopi, è possibile fare affidamento su interessi legali, piuttosto che sul consenso. Puoi approfondire questo argomento consultando la nostra Informativa sulla privacy e sui cookie.